Weather History for Newberry, MI

Change the Weather History Date:

Saturday, July 20, 2013

  Actual Average Record
Temperature  
Mean Temperature 57 °F -  
Max Temperature 64 °F 76 °F 95 °F (1955)
Min Temperature 48 °F 52 °F 37 °F (1992)
Degree Days  
Heating Degree Days 8    
Growing Degree Days 7 (Base 50)    
Moisture  
Dew Point 51 °F    
Average Humidity 73    
Maximum Humidity 94    
Minimum Humidity 52    
Precipitation  
Precipitation 0.00 in - - ()
Sea Level Pressure  
Sea Level Pressure 29.90 in    
Wind  
Wind Speed 8 mph (NW)    
Max Wind Speed 15 mph    
Max Gust Speed 21 mph    
Visibility 10 miles    
Events      
Averages and records for this station are not official NWS values.
T = Trace of Precipitation, MM = Missing Value Source: NWS Daily Summary

Daily Weather History Graph

Daily Weather History Graph

Search for Another Location

Airport:

Trip Planner

Search our weather history database for the weather conditions in past years. The results will help you decide how hot, cold, wet, or windy it might be!

Date:

Astronomy

Jul. 20, 2013 Rise Set
Actual Time 6:09 AM EDT 9:25 PM EDT
Civil Twilight 5:33 AM EDT 10:02 PM EDT
Nautical Twilight 4:45 AM EDT 10:49 PM EDT
Astronomical Twilight 3:45 AM EDT 11:49 PM EDT
Moon 7:27 PM EDT (7/20) 3:49 AM EDT (7/20)
Length of Visible Light 16h 28m
Length of Day
15h 15m
Waxing Gibbous, 93% of the Moon is Illuminated
Jul 20
Waxing Gibbous
Jul 22
Full
Jul 29
Last Quarter
Aug 6
New
Aug 14
First Quarter

Hourly Weather History & Observations

Time (EDT) Temp. Dew Point Humidity Pressure Visibility Wind Dir Wind Speed Gust Speed Precip Events Conditions
12:15 AM 62.6 °F 59.0 °F 88% 29.75 in 10.0 mi WSW 5.8 mph - N/A   Clear
12:35 AM 62.6 °F 59.0 °F 88% 29.75 in 10.0 mi WSW 6.9 mph - N/A   Clear
12:55 AM 62.6 °F 59.0 °F 88% 29.75 in 10.0 mi WSW 6.9 mph - N/A   Clear
1:15 AM 62.6 °F 59.0 °F 88% 29.75 in 10.0 mi WSW 6.9 mph - N/A   Clear
1:35 AM 62.6 °F 59.0 °F 88% 29.75 in 10.0 mi WSW 6.9 mph - N/A   Clear
1:55 AM 62.6 °F 59.0 °F 88% 29.75 in 10.0 mi WSW 6.9 mph - N/A   Clear
2:15 AM 62.6 °F 59.0 °F 88% 29.75 in 10.0 mi WSW 6.9 mph - N/A   Clear
2:35 AM 62.6 °F 59.0 °F 88% 29.75 in 10.0 mi WSW 6.9 mph - N/A   Clear
2:55 AM 62.6 °F 59.0 °F 88% 29.75 in 10.0 mi WSW 9.2 mph - N/A   Clear
3:15 AM 62.6 °F 59.0 °F 88% 29.75 in 10.0 mi WSW 8.1 mph - N/A   Clear
3:35 AM 62.6 °F 57.2 °F 82% 29.75 in 10.0 mi WSW 6.9 mph - N/A   Scattered Clouds
3:55 AM 62.6 °F 59.0 °F 88% 29.76 in 10.0 mi West 5.8 mph - N/A   Mostly Cloudy
4:15 AM 62.6 °F 57.2 °F 82% 29.76 in 10.0 mi West 6.9 mph - N/A   Overcast
4:35 AM 60.8 °F 57.2 °F 88% 29.76 in 10.0 mi WNW 5.8 mph - N/A   Overcast
4:55 AM 60.8 °F 57.2 °F 88% 29.76 in 10.0 mi WNW 5.8 mph - N/A   Overcast
5:15 AM 60.8 °F 55.4 °F 82% 29.77 in 10.0 mi WNW 5.8 mph - N/A   Mostly Cloudy
5:35 AM 60.8 °F 55.4 °F 82% 29.78 in 10.0 mi NNW 8.1 mph - N/A   Scattered Clouds
5:55 AM 59.0 °F 53.6 °F 82% 29.79 in 10.0 mi NW 6.9 mph - N/A   Clear
6:15 AM 57.2 °F 53.6 °F 88% 29.81 in 10.0 mi NNW 6.9 mph - N/A   Clear
6:35 AM 55.4 °F 53.6 °F 94% 29.82 in 10.0 mi NNW 10.4 mph - N/A   Clear
6:55 AM 55.4 °F 53.6 °F 94% 29.82 in 10.0 mi NNW 5.8 mph - N/A   Clear
7:15 AM 55.4 °F 53.6 °F 94% 29.83 in 10.0 mi NNW 6.9 mph - N/A   Clear
7:55 AM 57.2 °F 53.6 °F 88% 29.85 in 10.0 mi NNW 9.2 mph - N/A   Clear
8:15 AM 59.0 °F 53.6 °F 82% 29.85 in 10.0 mi NW 10.4 mph - N/A   Clear
8:35 AM 59.0 °F 53.6 °F 82% 29.86 in 10.0 mi NNW 8.1 mph - N/A   Clear
8:55 AM 60.8 °F 51.8 °F 72% 29.87 in 10.0 mi NNW 8.1 mph - N/A   Clear
9:15 AM 60.8 °F 53.6 °F 77% 29.87 in 10.0 mi NNW 8.1 mph - N/A   Clear
9:35 AM 60.8 °F 51.8 °F 72% 29.88 in 10.0 mi NNW 5.8 mph - N/A   Clear
9:55 AM 60.8 °F 50.0 °F 68% 29.90 in 10.0 mi North 9.2 mph 17.3 mph N/A   Clear
10:15 AM 62.6 °F 48.2 °F 59% 29.90 in 10.0 mi NW 11.5 mph 16.1 mph N/A   Clear
10:35 AM 62.6 °F 48.2 °F 59% 29.90 in 10.0 mi NNW 11.5 mph 19.6 mph N/A   Clear
10:55 AM 62.6 °F 50.0 °F 63% 29.91 in 10.0 mi NW 10.4 mph 17.3 mph N/A   Clear
11:15 AM 62.6 °F 48.2 °F 59% 29.92 in 10.0 mi North 10.4 mph 16.1 mph N/A   Clear
11:35 AM 62.6 °F 48.2 °F 59% 29.93 in 10.0 mi North 8.1 mph 16.1 mph N/A   Clear
11:55 AM 62.6 °F 46.4 °F 55% 29.94 in 10.0 mi North 8.1 mph 18.4 mph N/A   Clear
12:15 PM 62.6 °F 46.4 °F 55% 29.95 in 10.0 mi North 10.4 mph 17.3 mph N/A   Clear
12:35 PM 62.6 °F 46.4 °F 55% 29.95 in 10.0 mi NW 11.5 mph 17.3 mph N/A   Clear
12:55 PM 62.6 °F 46.4 °F 55% 29.96 in 10.0 mi NNW 15.0 mph - N/A   Clear
1:15 PM 64.4 °F 46.4 °F 52% 29.96 in 10.0 mi NW 12.7 mph 19.6 mph N/A   Clear
1:35 PM 62.6 °F 46.4 °F 55% 29.96 in 10.0 mi NW 10.4 mph 20.7 mph N/A   Clear
1:55 PM 62.6 °F 46.4 °F 55% 29.95 in 10.0 mi NW 12.7 mph 19.6 mph N/A   Clear
2:15 PM 62.6 °F 46.4 °F 55% 29.96 in 10.0 mi North 10.4 mph 18.4 mph N/A   Clear
2:35 PM 64.4 °F 46.4 °F 52% 29.97 in 10.0 mi NNW 10.4 mph 17.3 mph N/A   Clear
2:55 PM 62.6 °F 44.6 °F 52% 29.97 in 10.0 mi NNW 10.4 mph 19.6 mph N/A   Clear
3:15 PM 62.6 °F 46.4 °F 55% 29.96 in 10.0 mi NNW 13.8 mph 17.3 mph N/A   Clear
3:35 PM 64.4 °F 48.2 °F 56% 29.96 in 10.0 mi NW 12.7 mph 17.3 mph N/A   Clear
3:55 PM 62.6 °F 46.4 °F 55% 29.97 in 10.0 mi NNW 11.5 mph 19.6 mph N/A   Clear
4:15 PM 62.6 °F 46.4 °F 55% 29.97 in 10.0 mi North 9.2 mph 19.6 mph N/A   Clear
4:35 PM 62.6 °F 48.2 °F 59% 29.98 in 10.0 mi NW 12.7 mph 18.4 mph N/A   Clear
4:55 PM 62.6 °F 48.2 °F 59% 29.98 in 10.0 mi NNW 11.5 mph - N/A   Clear
5:15 PM 62.6 °F 48.2 °F 59% 29.98 in 10.0 mi North 10.4 mph 20.7 mph N/A   Clear
5:35 PM 62.6 °F 48.2 °F 59% 29.98 in 10.0 mi North 11.5 mph - N/A   Clear
5:55 PM 60.8 °F 46.4 °F 59% 29.98 in 10.0 mi NNW 10.4 mph 18.4 mph N/A   Clear
6:15 PM 60.8 °F 48.2 °F 63% 29.98 in 10.0 mi NW 10.4 mph 17.3 mph N/A   Clear
6:35 PM 60.8 °F 48.2 °F 63% 29.99 in 10.0 mi NW 11.5 mph 18.4 mph N/A   Clear
6:55 PM 60.8 °F 48.2 °F 63% 29.99 in 10.0 mi NW 10.4 mph - N/A   Clear
7:15 PM 60.8 °F 48.2 °F 63% 29.99 in 10.0 mi NW 9.2 mph - N/A   Clear
7:35 PM 60.8 °F 48.2 °F 63% 29.99 in 10.0 mi NNW 6.9 mph - N/A   Clear
7:55 PM 59.0 °F 48.2 °F 67% 29.99 in 10.0 mi NNW 4.6 mph - N/A   Clear
8:15 PM 57.2 °F 48.2 °F 72% 29.99 in 10.0 mi North 5.8 mph - N/A   Clear
8:35 PM 57.2 °F 48.2 °F 72% 29.99 in 10.0 mi North 8.1 mph - N/A   Clear
8:55 PM 55.4 °F 48.2 °F 77% 29.99 in 10.0 mi North 6.9 mph - N/A   Clear
9:15 PM 53.6 °F 48.2 °F 82% 30.00 in 10.0 mi North 5.8 mph - N/A   Clear
9:35 PM 53.6 °F 48.2 °F 82% 30.01 in 10.0 mi NNW 4.6 mph - N/A   Clear
9:55 PM 51.8 °F 48.2 °F 88% 30.01 in 10.0 mi NNW 4.6 mph - N/A   Clear
10:15 PM 51.8 °F 46.4 °F 82% 30.02 in 10.0 mi NNW 3.5 mph - N/A   Clear
10:35 PM 51.8 °F 46.4 °F 82% 30.03 in 10.0 mi NW 4.6 mph - N/A   Clear
10:55 PM 50.0 °F 46.4 °F 87% 30.03 in 10.0 mi WNW 1.2 mph - N/A   Clear
11:15 PM 50.0 °F 46.4 °F 87% 30.03 in 10.0 mi NW 4.6 mph - N/A   Clear
11:35 PM 50.0 °F 46.4 °F 87% 30.04 in 10.0 mi NW 3.5 mph - N/A   Clear
11:55 PM 48.2 °F 46.4 °F 93% 30.04 in 10.0 mi NW 5.8 mph - N/A   Clear